[[{"header":{"parameterUnit":"m.s-1","parameterCategory":2,"la1":30.2991,"la2":30.254,"lo1":-89.0895,"lo2":-89.0444,"dy":0.0017,"dx":0.0017,"nx":28,"ny":28,"refTime":"2025-11-16T09:00:00:Z","depth":"0","parameterNumber":2,"parameterNumberName":"U-component_of_CURRENTS"},"data":[0,0,0,0,0,0,0,0,0,0,0,0,0,0,0,0,0,0,0,0,0,0,0,0,0,0,0,0,0,0,0,0,0,0,0,0,0,0,0,0,0,0,0,0,0,0,0,0,0,0,0,0,0,0,0,0,0,0,0.1566,0.1567,0,0.1579,0.1579,0.1579,0.1556,0.1555,0.1555,0.1555,0.1508,0.1507,0.1506,0,0,0,0,0,0,0,0,0,0,0,0,0,0.1558,0.1558,0.1566,0.1567,0.1567,0.1579,0.1579,0.1579,0.1556,0.1555,0.1555,0.1554,0.1508,0.1507,0.1506,0,0,0,0,0,0,0,0,0,0,0,0,0,0.1562,0.1557,0.1566,0.156,0.1559,0.1579,0.1579,0.1579,0.1556,0.1555,0.1555,0.1554,0.1508,0.1507,0.1506,0.1513,0,0,0.1502,0.1502,0,0,0,0,0,0,0,0,0.1562,0.1562,0.156,0.156,0.156,0.1568,0.1559,0.1555,0.1556,0.1554,0.1555,0.1554,0.1525,0.1522,0.1523,0.1511,0.1509,0.1502,0.1501,0.1501,0.15,0,0,0,0,0,0,0,0.1561,0.1562,0.1568,0.1561,0.1561,0.1568,0.1567,0.1558,0.154,0.1554,0.1553,0.156,0.1524,0.1524,0.1521,0.1508,0.1502,0.1501,0.15,0.15,0.1556,0.1558,0,0,0,0,0,0,0.1565,0.1561,0.1568,0.1569,0.1563,0.1569,0.1568,0.1563,0.1541,0.1539,0.1561,0.1559,0.1526,0.1523,0.1519,0.1584,0.1501,0.15,0.1499,0.1554,0.1557,0.1559,0,0,0,0,0,0,0.1565,0.1565,0.1567,0.1568,0.157,0.157,0.1565,0.1564,0.1569,0.1547,0.1542,0.1567,0.1526,0.1521,0.1538,0.1579,0.1499,0.1498,0.1552,0.1555,0.1558,0.1675,0,0,0,0,0,0,0.1564,0.1564,0.1573,0.1568,0.157,0.1598,0.1566,0.1565,0.1575,0.1573,0.1551,0.1546,0.1525,0.154,0.1537,0.1576,0.1497,0.1549,0.1553,0.1557,0.1668,0.1682,0.1694,0,0,0,0,0,0.1563,0.1598,0.1573,0.1574,0.1577,0.16,0.1602,0.1598,0.1576,0.1595,0.1584,0.1547,0.1564,0.1541,0.1537,0.1577,0.1547,0.1552,0.1557,0.1663,0.1679,0.1693,0,0,0,0,0,0,0.1649,0.1598,0.1571,0.16,0.16,0.1598,0.163,0.1605,0.161,0.1609,0.1573,0.1569,0.1597,0.1573,0.1549,0.1607,0.155,0.1554,0.1632,0.1647,0.166,0.169,0.1496,0,0,0,0,0,0.1657,0.1641,0.1617,0.1649,0.1648,0.1631,0.1642,0.1629,0.163,0.1631,0.1616,0.1608,0.1614,0.162,0.1616,0.1647,0.1683,0.1671,0.1684,0.1695,0.1718,0.1802,0.1825,0.1576,0.1576,0.1576,0,0,0.1714,0.1676,0.1681,0.1661,0.1662,0.1689,0.1637,0.1663,0.1686,0.1625,0.1665,0.1646,0.1631,0.1671,0.1682,0.1657,0.1795,0.1701,0.1711,0.1728,0.181,0.1834,0.1856,0.1579,0.1578,0.1578,0,0,0.1822,0.1774,0.1797,0.1784,0.177,0.1751,0.1757,0.1747,0.1743,0.1765,0.1738,0.1756,0.1749,0.1767,0.1768,0.1849,0.1853,0.1837,0.1932,0.2014,0.2036,0.2055,0.2181,0.221,0.185,0.1851,0.1851,0,0.1896,0.1896,0.1824,0.1843,0.1848,0.1781,0.1828,0.1821,0.182,0.1833,0.1794,0.1827,0.1804,0.1875,0.1903,0.188,0.1939,0.1874,0.2033,0.2053,0.2071,0.2194,0.2225,0.1857,0.1856,0.1856,0.1855,0,0.2007,0.2007,0.2032,0.2004,0.2007,0.2034,0.1999,0.2004,0.1971,0.1964,0.2006,0.1986,0.2012,0.2005,0.1975,0.2091,0.21,0.2035,0.1998,0.2103,0.2226,0.2257,0.1866,0.1864,0.1862,0.186,0,0,0.216,0.2115,0.2122,0.2113,0.2078,0.209,0.2126,0.2138,0.2167,0.2155,0.2217,0.2222,0.2201,0.2204,0.2175,0.2238,0.2417,0.2199,0.22,0.2332,0.2651,0.2731,0.2771,0.2381,0.2385,0.2389,0.2704,0,0.2266,0.2311,0.2265,0.2319,0.2329,0.2269,0.2305,0.2303,0.2288,0.2329,0.2314,0.2353,0.228,0.2298,0.2355,0.238,0.2495,0.2341,0.2522,0.2529,0.2592,0.2807,0.2831,0.3119,0.2733,0.2738,0.2742,0,0.2366,0.2368,0.243,0.2413,0.2421,0.2449,0.2462,0.2487,0.2513,0.251,0.2546,0.2524,0.2613,0.252,0.2685,0.2591,0.2655,0.2679,0.269,0.2743,0.2665,0.2941,0.3188,0.3056,0.2788,0.2784,0.2781,0,0.2433,0.2471,0.2506,0.2502,0.2496,0.2523,0.2533,0.255,0.257,0.2634,0.2668,0.2742,0.2785,0.2864,0.2902,0.2816,0.3093,0.2975,0.3133,0.3139,0.3187,0.319,0.3332,0.315,0.315,0.3149,0.3148,0,0.2501,0.253,0.2538,0.2543,0.2596,0.2584,0.2643,0.2657,0.2706,0.275,0.2769,0.2829,0.2869,0.2991,0.3021,0.3209,0.321,0.3231,0.3249,0.3233,0.3236,0.3137,0.304,0.3161,0.3158,0.3156,0.3154,0,0.2531,0.2541,0.2567,0.2593,0.2605,0.2638,0.2676,0.2712,0.2771,0.2838,0.2869,0.295,0.3118,0.3203,0.3357,0.3387,0.3492,0.3594,0.36,0.3614,0.3603,0.3512,0.3621,0.3587,0.3847,0.3852,0.3855,0,0.2534,0.2549,0.2586,0.2595,0.26,0.2647,0.2666,0.2725,0.2759,0.2893,0.2929,0.3124,0.3229,0.3543,0.3674,0.3879,0.3685,0.4001,0.3832,0.3696,0.3605,0.3402,0.3348,0.3964,0.3969,0.3972,0.3975,0,0.2516,0.2532,0.2543,0.2576,0.2598,0.2634,0.2679,0.2718,0.2793,0.2879,0.3,0.3115,0.3452,0.3648,0.3947,0.4065,0.3875,0.4078,0.3931,0.375,0.3547,0.349,0.3672,0.4005,0.4002,0.4,0.3998,0.3997,0.2476,0.2489,0.25,0.2523,0.2555,0.2588,0.2598,0.2663,0.2735,0.2826,0.2985,0.3141,0.3505,0.3926,0.4058,0.4271,0.4108,0.4179,0.4105,0.3928,0.382,0.4106,0.4432,0.4432,0.4431,0.4431,0.443,0,0.2398,0.2418,0.2439,0.2458,0.2462,0.2511,0.2562,0.2564,0.2616,0.2778,0.2894,0.3232,0.3567,0.3884,0.4262,0.4244,0.4131,0.4168,0.3853,0.3817,0.4106,0.4028,0.4287,0.4287,0.4287,0.4287,0.4287,0.4287,0.2348,0.2336,0.2355,0.2332,0.2353,0.2339,0.2351,0.239,0.249,0.2638,0.2794,0.2968,0.3381,0.3891,0.4118,0.413,0.3837,0.3793,0.3681,0.3817,0.3807,0.3798,0.37,0.3886,0.3885,0.3333,0.3328,0.3325]},{"header":{"parameterUnit":"m.s-1","parameterCategory":2,"la1":30.2991,"la2":30.254,"lo1":-89.0895,"lo2":-89.0444,"dy":0.0017,"dx":0.0017,"nx":28,"ny":28,"refTime":"2025-11-16T09:00:00:Z","depth":"0","parameterNumber":3,"parameterNumberName":"V-component_of_CURRENTS"},"data":[0,0,0,0,0,0,0,0,0,0,0,0,0,0,0,0,0,0,0,0,0,0,0,0,0,0,0,0,0,0,0,0,0,0,0,0,0,0,0,0,0,0,0,0,0,0,0,0,0,0,0,0,0,0,0,0,0,0,-0.0323,-0.0324,0,-0.0451,-0.0453,-0.0454,-0.0544,-0.0544,-0.0545,-0.0545,-0.0675,-0.0678,-0.0681,0,0,0,0,0,0,0,0,0,0,0,0,0,-0.0212,-0.0214,-0.0323,-0.0324,-0.0326,-0.0451,-0.0453,-0.0455,-0.0544,-0.0544,-0.0545,-0.0545,-0.0674,-0.0677,-0.0681,0,0,0,0,0,0,0,0,0,0,0,0,0,-0.0295,-0.0214,-0.0323,-0.0383,-0.039,-0.045,-0.0453,-0.0455,-0.0544,-0.0544,-0.0545,-0.0546,-0.0673,-0.0677,-0.0682,-0.0697,0,0,-0.0695,-0.0697,0,0,0,0,0,0,0,0,-0.029,-0.0299,-0.0373,-0.0379,-0.0386,-0.048,-0.0461,-0.0535,-0.0543,-0.0488,-0.0545,-0.0546,-0.0607,-0.0617,-0.0644,-0.0703,-0.0708,-0.0696,-0.0699,-0.0701,-0.0702,0,0,0,0,0,0,0,-0.0284,-0.0294,-0.0377,-0.0374,-0.0382,-0.0423,-0.0435,-0.0476,-0.0545,-0.0493,-0.0499,-0.0509,-0.0612,-0.0639,-0.0648,-0.071,-0.0696,-0.07,-0.0703,-0.0704,-0.0781,-0.078,0,0,0,0,0,0,-0.0259,-0.0289,-0.0372,-0.038,-0.0336,-0.0424,-0.0438,-0.0451,-0.0545,-0.0559,-0.0508,-0.0512,-0.0631,-0.0642,-0.0652,-0.0633,-0.0701,-0.0705,-0.0708,-0.0782,-0.0781,-0.078,0,0,0,0,0,0,-0.0256,-0.0265,-0.0367,-0.0335,-0.035,-0.0424,-0.0439,-0.0453,-0.048,-0.0555,-0.057,-0.0519,-0.0632,-0.0646,-0.0686,-0.064,-0.0707,-0.0711,-0.0782,-0.0781,-0.078,-0.062,0,0,0,0,0,0,-0.0253,-0.0264,-0.0266,-0.0333,-0.0351,-0.0383,-0.0439,-0.0455,-0.0484,-0.0491,-0.057,-0.0583,-0.0634,-0.0679,-0.0691,-0.0647,-0.0715,-0.0783,-0.0782,-0.0781,-0.0626,-0.0614,-0.0603,0,0,0,0,0,-0.0248,-0.0238,-0.0265,-0.0276,-0.0352,-0.0381,-0.0393,-0.0451,-0.0483,-0.0481,-0.0544,-0.058,-0.0678,-0.0682,-0.0696,-0.0653,-0.0784,-0.0782,-0.0781,-0.0632,-0.0616,-0.0603,0,0,0,0,0,0,-0.0195,-0.0248,-0.0279,-0.0289,-0.0324,-0.0395,-0.0399,-0.0441,-0.0492,-0.0499,-0.0578,-0.0595,-0.0614,-0.0663,-0.0665,-0.0675,-0.0734,-0.0735,-0.0616,-0.0602,-0.0591,-0.0544,-0.0718,0,0,0,0,0,-0.0182,-0.019,-0.0246,-0.0253,-0.0263,-0.0331,-0.0352,-0.0387,-0.044,-0.0464,-0.0519,-0.0577,-0.0619,-0.0634,-0.0684,-0.0687,-0.0713,-0.0669,-0.0658,-0.0647,-0.0621,-0.0638,-0.0624,-0.0775,-0.0775,-0.0775,0,0,-0.0166,-0.0195,-0.0202,-0.0242,-0.0276,-0.0272,-0.0345,-0.0361,-0.0355,-0.0468,-0.0477,-0.0543,-0.0616,-0.0623,-0.0633,-0.0654,-0.0615,-0.0645,-0.0635,-0.0614,-0.0635,-0.062,-0.0606,-0.0774,-0.0774,-0.0774,0,0,-0.0121,-0.0157,-0.0142,-0.0158,-0.0192,-0.0226,-0.0222,-0.028,-0.0301,-0.0325,-0.04,-0.0434,-0.0505,-0.0533,-0.0561,-0.0515,-0.0562,-0.0535,-0.0422,-0.0439,-0.0426,-0.0415,-0.0405,-0.0395,-0.0517,-0.0516,-0.0516,0,-0.0101,-0.0093,-0.014,-0.0122,-0.0125,-0.0194,-0.0169,-0.0192,-0.0255,-0.0258,-0.0304,-0.039,-0.0453,-0.0446,-0.0433,-0.0481,-0.0498,-0.0463,-0.0419,-0.0409,-0.04,-0.0394,-0.0384,-0.0508,-0.0509,-0.051,-0.0511,0,-0.0041,-0.0034,-0.0019,-0.002,-0.0025,-0.0014,-0.0044,-0.0048,-0.0087,-0.0117,-0.013,-0.0217,-0.0267,-0.0285,-0.0346,-0.0308,-0.034,-0.0408,-0.0443,-0.0374,-0.0373,-0.0366,-0.0497,-0.05,-0.0502,-0.0504,0,0,-0.001,0.0016,0.0019,0.0038,0.0031,0.0031,0.0065,0.0069,0.0091,0.0043,0.0069,0.0003,-0.0052,-0.0087,-0.016,-0.0161,-0.0116,-0.0242,-0.0247,-0.0209,-0.0127,-0.0129,-0.0122,-0.0177,-0.0176,-0.0174,-0.0142,0,0.0045,0.0105,0.0103,0.016,0.0187,0.0161,0.0196,0.0196,0.0179,0.019,0.0136,0.0113,0.0027,-0.0001,-0.0008,-0.0104,-0.0093,-0.0116,-0.022,-0.0222,-0.0213,-0.0112,-0.0094,-0.0062,-0.0135,-0.0134,-0.0133,0,0.0099,0.0133,0.0202,0.0248,0.0258,0.0284,0.0322,0.0342,0.0355,0.0343,0.0334,0.0271,0.0264,0.0164,0.0104,0.009,0.0006,-0.0057,-0.0059,-0.0108,-0.0209,-0.0151,-0.0047,-0.0208,-0.0122,-0.0123,-0.0124,0,0.0136,0.0198,0.0256,0.0271,0.0316,0.0345,0.0361,0.0385,0.0411,0.0432,0.045,0.0422,0.0393,0.0313,0.0182,0.0138,0.012,0.0026,-0.0037,-0.0038,-0.0064,-0.007,-0.0108,0.0,0.0,0.0,0.0,0,0.0185,0.0227,0.0276,0.0304,0.0372,0.0385,0.045,0.0467,0.0505,0.0551,0.0518,0.0545,0.0423,0.0385,0.026,0.0164,0.0176,0.0026,-0.0017,-0.0008,-0.0009,-0.019,-0.0309,0.0001,0.0001,0.0001,0.0001,0,0.0203,0.0239,0.0305,0.0368,0.0388,0.0428,0.0488,0.0532,0.0568,0.0631,0.0639,0.064,0.0603,0.0503,0.0378,0.026,0.0068,0.0112,0.0154,0.0116,-0.0106,-0.0217,-0.0292,-0.0403,0.0064,0.0064,0.0064,0,0.0217,0.0258,0.0339,0.0376,0.04,0.046,0.0503,0.055,0.0598,0.0684,0.0717,0.0724,0.0737,0.061,0.0431,0.0285,0.009,0.0168,0.0081,-0.0067,-0.0225,-0.0303,-0.0398,0.0114,0.0115,0.0116,0.0116,0,0.0241,0.027,0.0319,0.0397,0.0447,0.0515,0.0578,0.0627,0.0692,0.0763,0.0842,0.0872,0.0789,0.069,0.0508,0.0359,0.0043,0.0173,0.0001,-0.0178,-0.0246,-0.0391,0.005,0.0121,0.012,0.012,0.012,0.012,0.0245,0.0284,0.0348,0.0418,0.0482,0.0558,0.0617,0.0692,0.0784,0.0911,0.0932,0.1046,0.0917,0.0691,0.0459,0.0101,0.0044,-0.0039,-0.0154,-0.021,-0.0338,0.0139,0.0158,0.0158,0.0158,0.0157,0.0157,0,0.0249,0.0296,0.0365,0.0452,0.0522,0.0557,0.0663,0.0736,0.0847,0.1005,0.1099,0.1201,0.0935,0.0663,0.0223,-0.0127,-0.0311,-0.0344,-0.0465,-0.0548,-0.0123,-0.0143,-0.0166,-0.0166,-0.0166,-0.0166,-0.0166,-0.0166,0.0248,0.0307,0.0352,0.0465,0.053,0.0633,0.0697,0.0815,0.0954,0.12,0.1381,0.1517,0.1438,0.0469,-0.0238,-0.0449,-0.0765,-0.0806,-0.099,-0.0718,-0.0699,-0.0681,-0.0726,-0.0871,-0.0872,-0.1365,-0.137,-0.1374]}],[{"header":{"parameterUnit":"m.s-1","parameterCategory":2,"la1":30.2991,"la2":30.254,"lo1":-89.0895,"lo2":-89.0444,"dy":0.0017,"dx":0.0017,"nx":28,"ny":28,"refTime":"2025-11-16T09:00:00:Z","depth":"2","parameterNumber":2,"parameterNumberName":"U-component_of_CURRENTS"},"data":[0,0,0,0,0,0,0,0,0,0,0,0,0,0,0,0,0,0,0,0,0,0,0,0,0,0,0,0,0,0,0,0,0,0,0,0,0,0,0,0,0,0,0,0,0,0,0,0,0,0,0,0,0,0,0,0,0,0,0.0,0.0001,0,0.0091,0.0092,0.0092,0.0119,0.0119,0.0118,0.0118,0.0197,0.0199,0.0202,0,0,0,0,0,0,0,0,0,0,0,0,0,-0.0136,-0.0134,0.0,0.0001,0.0003,0.0091,0.0092,0.0093,0.0119,0.0119,0.0118,0.0118,0.0196,0.0199,0.0202,0,0,0,0,0,0,0,0,0,0,0,0,0,-0.0066,-0.0133,-0.0,0.0028,0.0031,0.009,0.0092,0.0093,0.0119,0.0119,0.0118,0.0118,0.0195,0.0199,0.0202,0.0234,0,0,0.0213,0.0215,0,0,0,0,0,0,0,0,-0.007,-0.0061,0.0022,0.0026,0.003,0.0095,0.0073,0.014,0.0119,0.0084,0.0118,0.0118,0.0163,0.0169,0.0185,0.0238,0.0241,0.0214,0.0216,0.0217,0.0218,0,0,0,0,0,0,0,-0.0075,-0.0065,0.0034,0.0024,0.0029,0.0041,0.005,0.0086,0.0124,0.0087,0.009,0.0103,0.0165,0.0182,0.0187,0.0242,0.0213,0.0217,0.0219,0.022,0.0428,0.0431,0,0,0,0,0,0,-0.0082,-0.0069,0.0031,0.0037,-0.002,0.0044,0.0054,0.0073,0.0124,0.0131,0.0103,0.0104,0.0176,0.0183,0.019,0.0304,0.0217,0.0221,0.0223,0.0424,0.0428,0.0432,0,0,0,0,0,0,-0.0086,-0.0074,0.0028,-0.0013,0.0001,0.0046,0.0068,0.0075,0.0104,0.0136,0.0143,0.0126,0.0176,0.0185,0.025,0.0304,0.0222,0.0226,0.042,0.0425,0.043,0.0485,0,0,0,0,0,0,-0.009,-0.0076,-0.0061,-0.0014,0.0003,0.0078,0.0069,0.0077,0.0113,0.0115,0.0158,0.0164,0.0176,0.0245,0.0254,0.0308,0.0228,0.0416,0.0423,0.0428,0.0479,0.0491,0.0502,0,0,0,0,0,-0.0095,-0.0073,-0.0061,-0.0049,0.002,0.0079,0.0089,0.0118,0.0115,0.0139,0.0175,0.0164,0.0292,0.025,0.026,0.0316,0.0413,0.0421,0.0428,0.0474,0.0489,0.0502,0,0,0,0,0,0,-0.0124,-0.0066,-0.0053,-0.0014,0.0035,0.0085,0.0112,0.0127,0.0174,0.0179,0.0197,0.0208,0.0288,0.03,0.0254,0.04,0.0355,0.0365,0.0387,0.0401,0.0412,0.0416,0.0231,0,0,0,0,0,-0.0123,-0.0088,-0.0034,0.0001,0.0026,0.007,0.0098,0.0122,0.0167,0.0187,0.0222,0.027,0.0327,0.0359,0.0405,0.0478,0.0499,0.0527,0.0538,0.0548,0.0562,0.0636,0.0654,0.0457,0.0457,0.0456,0,0,-0.0124,-0.0087,-0.0067,-0.0002,0.0037,0.0098,0.0086,0.0141,0.0199,0.019,0.0279,0.0308,0.0356,0.0442,0.048,0.0458,0.062,0.0557,0.0564,0.0574,0.0646,0.0665,0.0681,0.0462,0.0461,0.046,0,0,-0.0095,-0.0072,-0.0027,0.002,0.0087,0.0121,0.014,0.0205,0.0241,0.0323,0.034,0.0402,0.0484,0.0535,0.0568,0.0674,0.0675,0.0694,0.0757,0.0829,0.0845,0.086,0.0921,0.0941,0.0703,0.0703,0.0703,0,-0.0099,-0.0031,-0.0005,0.0057,0.0105,0.0136,0.0204,0.0252,0.0333,0.0377,0.0363,0.0509,0.0534,0.0651,0.0688,0.0699,0.0734,0.0692,0.0841,0.0856,0.087,0.0929,0.095,0.0706,0.0706,0.0706,0.0705,0,-0.0027,0.0029,0.0062,0.0153,0.0204,0.0267,0.0336,0.0394,0.0432,0.0482,0.0596,0.0636,0.0722,0.0746,0.0747,0.0872,0.0865,0.0839,0.0795,0.0892,0.095,0.097,0.0712,0.071,0.0709,0.0708,0,0,-0.0033,0.0087,0.0103,0.0157,0.0261,0.0309,0.0413,0.0516,0.0586,0.0659,0.0757,0.085,0.086,0.09,0.0915,0.0974,0.1093,0.0951,0.0953,0.0993,0.1257,0.1159,0.1172,0.109,0.1094,0.1097,0.1259,0,0.0021,0.0136,0.0192,0.031,0.0375,0.044,0.0532,0.0625,0.0697,0.0797,0.0857,0.095,0.0924,0.0964,0.1025,0.1076,0.1149,0.1051,0.1174,0.1178,0.1063,0.1193,0.1077,0.1204,0.1279,0.1282,0.1285,0,0.0081,0.0151,0.0266,0.0389,0.0424,0.0498,0.0637,0.0726,0.0863,0.0919,0.1017,0.1057,0.1174,0.1119,0.1273,0.1212,0.1251,0.1276,0.1283,0.1186,0.1118,0.1121,0.1238,0.1319,0.1316,0.1313,0.1311,0,0.0063,0.0204,0.0292,0.0338,0.048,0.0546,0.0628,0.0764,0.0845,0.1001,0.1064,0.1197,0.1267,0.1344,0.1391,0.1351,0.1536,0.1487,0.1445,0.1438,0.1361,0.1339,0.1609,0.1609,0.1608,0.1608,0.1607,0,0.0096,0.0168,0.0288,0.0338,0.0444,0.0546,0.0667,0.0767,0.0909,0.1013,0.1119,0.1206,0.1325,0.1426,0.1457,0.1518,0.16,0.1491,0.1487,0.1377,0.1356,0.1459,0.144,0.1614,0.1612,0.1611,0.161,0,0.0069,0.015,0.0249,0.0391,0.0438,0.0512,0.067,0.0754,0.0893,0.1031,0.1084,0.1253,0.139,0.1486,0.1625,0.1597,0.1662,0.1659,0.1513,0.1487,0.1504,0.1486,0.1654,0.1652,0.165,0.1649,0.1648,0,0.0069,0.0116,0.0257,0.0312,0.038,0.0497,0.0579,0.0732,0.0818,0.1042,0.1099,0.1283,0.1378,0.1543,0.1559,0.163,0.1675,0.155,0.1441,0.1536,0.1516,0.15,0.1485,0.1382,0.1379,0.1376,0.1374,0,0.0061,0.0105,0.0181,0.0287,0.0374,0.0472,0.0598,0.0653,0.084,0.0948,0.1112,0.1207,0.1361,0.1398,0.1473,0.1471,0.1523,0.1493,0.1693,0.1352,0.1283,0.1261,0.1255,0.1351,0.1353,0.1355,0.1356,0.1357,0.0044,0.0081,0.0175,0.0276,0.0363,0.0451,0.0518,0.063,0.0745,0.091,0.102,0.1138,0.1219,0.1258,0.128,0.1305,0.1363,0.1332,0.134,0.135,0.1254,0.1182,0.1215,0.1216,0.1217,0.1218,0.1219,0,0.0036,0.0092,0.0168,0.0282,0.0352,0.0426,0.0539,0.058,0.068,0.0822,0.0934,0.0926,0.0972,0.1095,0.1089,0.1084,0.1061,0.1072,0.1066,0.1087,0.1107,0.0998,0.0892,0.0891,0.089,0.089,0,0,0.0038,0.01,0.0143,0.0254,0.0336,0.0426,0.0484,0.0528,0.0611,0.0694,0.078,0.0855,0.0991,0.0904,0.0919,0.0934,0.099,0.0886,0.1141,0.1151,0.1169,0.1243,0.1097,0,0,0,0,0]},{"header":{"parameterUnit":"m.s-1","parameterCategory":2,"la1":30.2991,"la2":30.254,"lo1":-89.0895,"lo2":-89.0444,"dy":0.0017,"dx":0.0017,"nx":28,"ny":28,"refTime":"2025-11-16T09:00:00:Z","depth":"2","parameterNumber":3,"parameterNumberName":"V-component_of_CURRENTS"},"data":[0,0,0,0,0,0,0,0,0,0,0,0,0,0,0,0,0,0,0,0,0,0,0,0,0,0,0,0,0,0,0,0,0,0,0,0,0,0,0,0,0,0,0,0,0,0,0,0,0,0,0,0,0,0,0,0,0,0,0.0055,0.0055,0,0.0066,0.0067,0.0067,0.0087,0.0088,0.0088,0.0088,0.011,0.011,0.0111,0,0,0,0,0,0,0,0,0,0,0,0,0,0.0073,0.0072,0.0055,0.0055,0.0055,0.0066,0.0067,0.0067,0.0087,0.0088,0.0088,0.0088,0.011,0.011,0.0111,0,0,0,0,0,0,0,0,0,0,0,0,0,0.0073,0.0072,0.0055,0.0066,0.0067,0.0066,0.0067,0.0067,0.0087,0.0088,0.0088,0.0089,0.011,0.011,0.0111,0.0104,0,0,0.0112,0.0112,0,0,0,0,0,0,0,0,0.0073,0.0073,0.0065,0.0066,0.0067,0.0075,0.0081,0.008,0.0087,0.0081,0.0088,0.0089,0.0099,0.01,0.0102,0.0105,0.0106,0.0112,0.0112,0.0113,0.0113,0,0,0,0,0,0,0,0.0073,0.0073,0.0061,0.0065,0.0066,0.0078,0.0078,0.0081,0.0088,0.0081,0.0082,0.0082,0.0099,0.0102,0.0103,0.0106,0.0112,0.0113,0.0113,0.0113,0.0103,0.0102,0,0,0,0,0,0,0.0068,0.0072,0.006,0.0061,0.007,0.0077,0.0078,0.0073,0.0087,0.009,0.0082,0.0083,0.0101,0.0102,0.0104,0.0103,0.0113,0.0113,0.0113,0.0103,0.0103,0.0102,0,0,0,0,0,0,0.0069,0.0067,0.006,0.0067,0.0066,0.0076,0.007,0.0073,0.0082,0.0088,0.0091,0.009,0.0101,0.0103,0.0104,0.0103,0.0113,0.0114,0.0104,0.0103,0.0103,0.0096,0,0,0,0,0,0,0.0069,0.0067,0.007,0.0066,0.0066,0.0068,0.007,0.0073,0.0081,0.0083,0.0095,0.0097,0.0102,0.0104,0.0105,0.0104,0.0114,0.0105,0.0104,0.0103,0.0097,0.0096,0.0094,0,0,0,0,0,0.0069,0.0073,0.007,0.0069,0.0067,0.0068,0.007,0.0079,0.008,0.0088,0.0088,0.0097,0.0098,0.0103,0.0105,0.0105,0.0105,0.0104,0.0103,0.0098,0.0096,0.0094,0,0,0,0,0,0,0.009,0.0075,0.0072,0.0073,0.0073,0.0072,0.0081,0.0081,0.0086,0.009,0.0092,0.0094,0.0093,0.0097,0.0103,0.0097,0.0103,0.0102,0.0098,0.0097,0.0095,0.0105,0.0114,0,0,0,0,0,0.0092,0.0088,0.0079,0.0082,0.0081,0.008,0.0084,0.0087,0.0086,0.009,0.0093,0.0092,0.0087,0.0092,0.0089,0.009,0.0079,0.0089,0.0087,0.0086,0.0094,0.0061,0.0057,0.0098,0.0098,0.0098,0,0,0.0101,0.0093,0.0091,0.0085,0.0086,0.0092,0.0085,0.0091,0.0096,0.0091,0.0099,0.0087,0.0084,0.0081,0.0081,0.0087,0.0067,0.0084,0.0083,0.0093,0.0059,0.0055,0.0051,0.0098,0.0098,0.0098,0,0,0.0117,0.0108,0.0111,0.0111,0.0109,0.0106,0.0108,0.0104,0.0106,0.0104,0.0096,0.0081,0.0084,0.0075,0.0072,0.006,0.0056,0.006,0.0066,0.0033,0.003,0.0027,0.0003,-0.0003,0.0063,0.0063,0.0063,0,0.0132,0.0131,0.0116,0.0122,0.0127,0.0113,0.0125,0.0121,0.0118,0.0116,0.0109,0.0087,0.008,0.0071,0.0062,0.0058,0.0041,0.0075,0.0031,0.0028,0.0025,0.0001,-0.0005,0.0063,0.0063,0.0063,0.0063,0,0.0147,0.0154,0.0157,0.0156,0.0159,0.0167,0.0156,0.0155,0.0146,0.0138,0.0122,0.0097,0.0087,0.0074,0.0065,0.004,0.0035,0.0029,0.0038,0.002,-0.0004,-0.001,0.0062,0.0062,0.0063,0.0063,0,0,0.0161,0.0168,0.017,0.0184,0.0179,0.0186,0.0186,0.0184,0.0192,0.0163,0.0164,0.0125,0.0104,0.0098,0.0076,0.0044,-0.0004,0.0028,0.0027,0.0008,-0.0074,-0.0109,-0.0119,-0.0021,-0.0022,-0.0023,-0.0083,0,0.0182,0.0206,0.0198,0.0227,0.0242,0.0229,0.0236,0.0229,0.0217,0.0212,0.0167,0.0158,0.0116,0.0109,0.0065,0.002,-0.0019,0.0014,-0.0056,-0.0057,-0.0085,-0.0127,-0.0138,-0.0196,-0.0089,-0.009,-0.009,0,0.0197,0.0214,0.0246,0.0272,0.0277,0.029,0.0301,0.0305,0.0285,0.0275,0.0241,0.0208,0.0156,0.0124,0.0023,0.0044,-0.0015,-0.0059,-0.0062,-0.0094,-0.0104,-0.016,-0.021,-0.01,-0.01,-0.0099,-0.0098,0,0.0218,0.0247,0.0277,0.0285,0.0307,0.0321,0.0331,0.0325,0.0343,0.0315,0.0322,0.0246,0.0227,0.0126,0.0027,0.0022,-0.008,-0.0096,-0.0186,-0.0188,-0.021,-0.0213,-0.0173,-0.0173,-0.0173,-0.0172,-0.0172,0,0.0242,0.0268,0.0294,0.0313,0.0362,0.0357,0.0399,0.0398,0.0404,0.0434,0.0359,0.0365,0.0226,0.0152,0.0042,-0.009,-0.0074,-0.0193,-0.0213,-0.0213,-0.0216,-0.0137,-0.0132,-0.0175,-0.0174,-0.0174,-0.0173,0,0.0266,0.0277,0.0323,0.0358,0.0377,0.0412,0.0462,0.0491,0.0485,0.0522,0.0517,0.0457,0.035,0.0206,0.0058,-0.0055,-0.0184,-0.0231,-0.022,-0.0239,-0.0275,-0.027,-0.0352,-0.0354,-0.0355,-0.0357,-0.0358,0,0.0285,0.0308,0.0365,0.0404,0.0428,0.0479,0.052,0.0535,0.0573,0.0585,0.0611,0.0525,0.0457,0.0216,0.0001,-0.0215,-0.0202,-0.0344,-0.0369,-0.0286,-0.0297,-0.0289,-0.0282,-0.0398,-0.04,-0.0401,-0.0402,0,0.033,0.0346,0.0383,0.0464,0.0519,0.0581,0.0641,0.0678,0.0699,0.0719,0.0738,0.068,0.0444,0.0196,-0.0101,-0.0232,-0.0321,-0.0375,-0.0297,-0.0351,-0.0335,-0.0344,-0.0334,-0.0412,-0.0411,-0.041,-0.041,-0.0409,0.037,0.0404,0.0456,0.0535,0.0599,0.0675,0.074,0.0789,0.0844,0.0831,0.0784,0.0664,0.0388,-0.0043,-0.0229,-0.0397,-0.0402,-0.0481,-0.0475,-0.0469,-0.0463,-0.0452,-0.0548,-0.0548,-0.0548,-0.0547,-0.0547,0,0.0427,0.0463,0.0529,0.0623,0.0702,0.0736,0.0823,0.0855,0.0928,0.0828,0.0779,0.0452,0.017,-0.0058,-0.0341,-0.0534,-0.0518,-0.0558,-0.0511,-0.0502,-0.0494,-0.0487,-0.058,-0.058,-0.058,-0.058,0,0,0.0461,0.0523,0.055,0.0693,0.0776,0.0901,0.096,0.0976,0.0926,0.0771,0.0647,0.0401,0.0143,-0.0091,-0.0329,-0.0434,-0.0413,-0.0448,-0.0416,-0.0328,-0.0317,-0.0459,-0.044,0,0,0,0,0]}],[{"header":{"parameterUnit":"m.s-1","parameterCategory":2,"la1":30.2991,"la2":30.254,"lo1":-89.0895,"lo2":-89.0444,"dy":0.0017,"dx":0.0017,"nx":28,"ny":28,"refTime":"2025-11-16T09:00:00:Z","depth":"4","parameterNumber":2,"parameterNumberName":"U-component_of_CURRENTS"},"data":[0,0,0,0,0,0,0,0,0,0,0,0,0,0,0,0,0,0,0,0,0,0,0,0,0,0,0,0,0,0,0,0,0,0,0,0,0,0,0,0,0,0,0,0,0,0,0,0,0,0,0,0,0,0,0,0,0,0,0.0286,0.0286,0,0.0297,0.0298,0.0298,0.0309,0.031,0.031,0.031,0.0336,0.0337,0.0337,0,0,0,0,0,0,0,0,0,0,0,0,0,0.0272,0.0272,0.0286,0.0286,0.0286,0.0297,0.0298,0.0298,0.0309,0.031,0.031,0.031,0.0336,0.0337,0.0337,0,0,0,0,0,0,0,0,0,0,0,0,0,0.028,0.0272,0.0286,0.0293,0.0294,0.0297,0.0298,0.0298,0.0309,0.031,0.031,0.031,0.0336,0.0337,0.0338,0.034,0,0,0.034,0.0341,0,0,0,0,0,0,0,0,0.028,0.0281,0.0292,0.0292,0.0293,0.0302,0.0302,0.0312,0.0309,0.0304,0.031,0.031,0.0326,0.0327,0.033,0.0341,0.0342,0.034,0.0341,0.0341,0.0342,0,0,0,0,0,0,0,0.0279,0.028,0.0291,0.0292,0.0293,0.0295,0.0296,0.0304,0.0314,0.0304,0.0305,0.0306,0.0326,0.0329,0.033,0.0342,0.034,0.0341,0.0342,0.0342,0.037,0.037,0,0,0,0,0,0,0.0277,0.028,0.029,0.0291,0.0286,0.0295,0.0297,0.0299,0.0314,0.0316,0.0306,0.0306,0.0327,0.0329,0.0331,0.0341,0.0341,0.0342,0.0343,0.0369,0.037,0.037,0,0,0,0,0,0,0.0277,0.0278,0.029,0.0285,0.0287,0.0295,0.0298,0.0299,0.031,0.0315,0.0317,0.0316,0.0327,0.033,0.0344,0.0341,0.0343,0.0343,0.0369,0.037,0.037,0.0355,0,0,0,0,0,0,0.0276,0.0278,0.0284,0.0285,0.0287,0.0298,0.0298,0.0299,0.031,0.0311,0.0324,0.0326,0.0328,0.0343,0.0345,0.0343,0.0344,0.0369,0.0369,0.037,0.0355,0.0355,0.0354,0,0,0,0,0,0.0276,0.028,0.0284,0.0286,0.0294,0.0298,0.0299,0.0305,0.031,0.0316,0.0324,0.0326,0.0347,0.0344,0.0347,0.0344,0.0369,0.0369,0.037,0.0356,0.0355,0.0354,0,0,0,0,0,0,0.0274,0.0282,0.0286,0.0293,0.0298,0.03,0.0308,0.0311,0.0322,0.0327,0.0331,0.0333,0.0344,0.035,0.0346,0.0354,0.0357,0.0358,0.0346,0.0345,0.0345,0.0353,0.0345,0,0,0,0,0,0.0278,0.0285,0.029,0.0296,0.0302,0.0307,0.0312,0.0316,0.0322,0.0328,0.0334,0.0342,0.0346,0.0351,0.0358,0.0364,0.0375,0.0365,0.0364,0.0364,0.0373,0.0381,0.0382,0.0371,0.0371,0.0371,0,0,0.0275,0.0283,0.0285,0.0297,0.0304,0.0308,0.0311,0.0321,0.0323,0.0329,0.0338,0.0343,0.0349,0.0353,0.0358,0.0358,0.0372,0.0364,0.0364,0.0373,0.0382,0.0383,0.0383,0.0372,0.0372,0.0372,0,0,0.0276,0.0287,0.0295,0.03,0.0314,0.0317,0.0321,0.0328,0.0333,0.0341,0.0343,0.0348,0.0358,0.0356,0.0357,0.0361,0.0371,0.0363,0.0366,0.0373,0.0374,0.0375,0.0388,0.039,0.0361,0.0361,0.0361,0,0.0276,0.0287,0.0297,0.0307,0.0311,0.0321,0.0327,0.033,0.0338,0.0345,0.0345,0.0358,0.0358,0.0362,0.0359,0.0359,0.037,0.0364,0.0372,0.0373,0.0374,0.0387,0.039,0.036,0.0361,0.0361,0.0361,0,0.0278,0.0292,0.0298,0.0312,0.0318,0.0326,0.033,0.0338,0.0345,0.0348,0.036,0.036,0.037,0.0363,0.036,0.0367,0.0374,0.037,0.0371,0.0375,0.0388,0.0391,0.0359,0.036,0.036,0.036,0,0,0.0268,0.0295,0.0298,0.0312,0.0323,0.0329,0.0334,0.0345,0.0357,0.036,0.0373,0.0368,0.0376,0.0379,0.0375,0.0375,0.0383,0.0377,0.0377,0.0387,0.0408,0.044,0.0446,0.038,0.038,0.0381,0.0413,0,0.0271,0.0294,0.0301,0.0318,0.0332,0.0338,0.0342,0.0352,0.0362,0.0376,0.0378,0.0392,0.0379,0.0388,0.0385,0.0388,0.0391,0.0375,0.0407,0.0408,0.0433,0.045,0.0382,0.0415,0.0416,0.0416,0.0417,0,0.0271,0.0291,0.0311,0.0336,0.0341,0.0348,0.0368,0.0373,0.039,0.0399,0.0412,0.0419,0.0425,0.0413,0.0423,0.0416,0.0415,0.0412,0.0413,0.0453,0.0446,0.0413,0.0422,0.0422,0.0421,0.0421,0.0421,0,0.0268,0.0296,0.0317,0.0323,0.0347,0.0358,0.037,0.0386,0.0398,0.0423,0.0439,0.0447,0.0462,0.0459,0.0463,0.0444,0.0479,0.0449,0.0478,0.048,0.0446,0.0445,0.0459,0.0459,0.0459,0.0459,0.0459,0,0.0267,0.0283,0.0322,0.0332,0.0356,0.037,0.0394,0.0405,0.0428,0.0449,0.0458,0.0478,0.0476,0.0495,0.0483,0.0506,0.0499,0.0492,0.0495,0.0439,0.0437,0.0448,0.0446,0.046,0.046,0.0459,0.0459,0,0.0255,0.0281,0.0307,0.0343,0.0357,0.0374,0.0408,0.0422,0.0448,0.0477,0.0489,0.0512,0.0542,0.0549,0.0555,0.0545,0.0552,0.0561,0.0522,0.052,0.0538,0.0535,0.0585,0.0586,0.0587,0.0589,0.0589,0,0.025,0.0265,0.0313,0.0332,0.0351,0.0382,0.04,0.0428,0.0447,0.0496,0.0509,0.0556,0.0571,0.0606,0.061,0.0618,0.0607,0.0612,0.0553,0.0556,0.0553,0.0548,0.0544,0.0591,0.0592,0.0592,0.0592,0,0.0236,0.0256,0.0278,0.0324,0.0352,0.0379,0.0413,0.0428,0.0464,0.049,0.0529,0.0557,0.0602,0.0615,0.0646,0.0638,0.0606,0.0624,0.062,0.0565,0.0564,0.0559,0.0554,0.0597,0.0596,0.0596,0.0596,0,0.0222,0.0234,0.0272,0.0309,0.0346,0.0376,0.0393,0.0427,0.0451,0.0504,0.0519,0.0566,0.0596,0.0628,0.0648,0.0664,0.064,0.0609,0.0605,0.06,0.0594,0.0595,0.0652,0,0,0,0,0,0.0205,0.0223,0.0256,0.03,0.0338,0.0362,0.0402,0.0418,0.0457,0.048,0.0501,0.0541,0.0588,0.0611,0.063,0.0657,0.0641,0.0678,0.0602,0.0621,0.0616,0.0609,0,0,0,0,0,0,0.0195,0.0223,0.0248,0.029,0.0318,0.0356,0.0381,0.0406,0.0423,0.0464,0.0488,0.0526,0.0571,0.0571,0.0622,0.0632,0.0582,0.071,0.071,0.0624,0.0619,0.0615,0.0606,0,0,0,0,0]},{"header":{"parameterUnit":"m.s-1","parameterCategory":2,"la1":30.2991,"la2":30.254,"lo1":-89.0895,"lo2":-89.0444,"dy":0.0017,"dx":0.0017,"nx":28,"ny":28,"refTime":"2025-11-16T09:00:00:Z","depth":"4","parameterNumber":3,"parameterNumberName":"V-component_of_CURRENTS"},"data":[0,0,0,0,0,0,0,0,0,0,0,0,0,0,0,0,0,0,0,0,0,0,0,0,0,0,0,0,0,0,0,0,0,0,0,0,0,0,0,0,0,0,0,0,0,0,0,0,0,0,0,0,0,0,0,0,0,0,-0.0195,-0.0195,0,-0.0227,-0.0228,-0.0228,-0.0272,-0.0273,-0.0274,-0.0274,-0.0335,-0.0336,-0.0337,0,0,0,0,0,0,0,0,0,0,0,0,0,-0.019,-0.019,-0.0195,-0.0195,-0.0195,-0.0227,-0.0228,-0.0229,-0.0272,-0.0273,-0.0274,-0.0274,-0.0334,-0.0336,-0.0337,0,0,0,0,0,0,0,0,0,0,0,0,0,-0.0206,-0.019,-0.0195,-0.022,-0.0222,-0.0227,-0.0228,-0.0229,-0.0272,-0.0273,-0.0274,-0.0275,-0.0334,-0.0335,-0.0337,-0.0329,0,0,-0.0342,-0.0342,0,0,0,0,0,0,0,0,-0.0205,-0.0206,-0.0216,-0.0218,-0.0221,-0.0246,-0.0249,-0.0263,-0.0272,-0.0255,-0.0274,-0.0275,-0.0306,-0.031,-0.0316,-0.0332,-0.0334,-0.0342,-0.0343,-0.0344,-0.0344,0,0,0,0,0,0,0,-0.0204,-0.0205,-0.0209,-0.0216,-0.0219,-0.0237,-0.024,-0.0252,-0.0276,-0.0256,-0.0259,-0.026,-0.0308,-0.0314,-0.0317,-0.0335,-0.0342,-0.0343,-0.0344,-0.0345,-0.0421,-0.0422,0,0,0,0,0,0,-0.0195,-0.0204,-0.0208,-0.021,-0.0213,-0.0236,-0.0239,-0.0238,-0.0276,-0.0282,-0.0259,-0.0262,-0.0311,-0.0315,-0.032,-0.0385,-0.0344,-0.0345,-0.0346,-0.042,-0.0422,-0.0423,0,0,0,0,0,0,-0.0194,-0.0195,-0.0207,-0.0207,-0.0209,-0.0234,-0.0233,-0.0238,-0.0258,-0.0278,-0.0285,-0.0276,-0.0312,-0.0317,-0.0353,-0.0385,-0.0346,-0.0347,-0.0419,-0.0421,-0.0422,-0.047,0,0,0,0,0,0,-0.0194,-0.0194,-0.0198,-0.0206,-0.0209,-0.0219,-0.0232,-0.0238,-0.0256,-0.026,-0.0293,-0.0299,-0.0313,-0.0351,-0.0355,-0.0387,-0.0348,-0.0418,-0.042,-0.0422,-0.0467,-0.0473,-0.0478,0,0,0,0,0,-0.0194,-0.0193,-0.0198,-0.0199,-0.0211,-0.0219,-0.0223,-0.0245,-0.0256,-0.0266,-0.0297,-0.0299,-0.0367,-0.0353,-0.0357,-0.0391,-0.0417,-0.0419,-0.0422,-0.0464,-0.0472,-0.0478,0,0,0,0,0,0,-0.0195,-0.0198,-0.0204,-0.0205,-0.0215,-0.0226,-0.0239,-0.0248,-0.0279,-0.0291,-0.0309,-0.0318,-0.0363,-0.0364,-0.0349,-0.0418,-0.0393,-0.0396,-0.0424,-0.0431,-0.0436,-0.043,-0.035,0,0,0,0,0,-0.0195,-0.0199,-0.0202,-0.0207,-0.0211,-0.0226,-0.0235,-0.0249,-0.0271,-0.0285,-0.031,-0.034,-0.0372,-0.0392,-0.0415,-0.0447,-0.0433,-0.0472,-0.0477,-0.0482,-0.048,-0.048,-0.0485,-0.0431,-0.0431,-0.0431,0,0,-0.0198,-0.02,-0.0204,-0.0209,-0.0221,-0.0231,-0.0235,-0.0253,-0.0273,-0.0286,-0.0331,-0.0358,-0.0384,-0.043,-0.045,-0.0439,-0.0493,-0.0485,-0.0489,-0.0484,-0.0483,-0.0489,-0.0493,-0.0432,-0.0432,-0.0432,0,0,-0.0203,-0.0208,-0.0212,-0.0221,-0.0236,-0.0244,-0.025,-0.0269,-0.0293,-0.0331,-0.0354,-0.0397,-0.0439,-0.0469,-0.0488,-0.0532,-0.052,-0.0547,-0.0574,-0.0575,-0.058,-0.0583,-0.0579,-0.0582,-0.0552,-0.0552,-0.0552,0,-0.0209,-0.0211,-0.0217,-0.0225,-0.0235,-0.025,-0.0261,-0.0284,-0.0318,-0.0338,-0.0353,-0.043,-0.0458,-0.051,-0.0542,-0.0546,-0.0541,-0.0548,-0.0582,-0.0585,-0.0588,-0.0583,-0.0585,-0.0554,-0.0554,-0.0554,-0.0554,0,-0.0214,-0.0223,-0.0228,-0.0243,-0.0256,-0.0268,-0.0292,-0.0319,-0.0349,-0.0372,-0.0432,-0.0475,-0.0518,-0.0545,-0.0566,-0.061,-0.0598,-0.0586,-0.0563,-0.0596,-0.0589,-0.059,-0.0558,-0.0557,-0.0556,-0.0556,0,0,-0.0207,-0.0226,-0.023,-0.0239,-0.0266,-0.0273,-0.0313,-0.0343,-0.0366,-0.042,-0.0453,-0.0536,-0.0558,-0.0581,-0.0612,-0.063,-0.0663,-0.0628,-0.0627,-0.0621,-0.0664,-0.0626,-0.0624,-0.0658,-0.0659,-0.0659,-0.0654,0,-0.0211,-0.022,-0.0235,-0.0257,-0.0263,-0.0293,-0.0323,-0.0358,-0.0396,-0.0433,-0.0488,-0.0532,-0.0571,-0.0601,-0.0631,-0.0649,-0.0668,-0.0665,-0.0636,-0.0635,-0.0594,-0.0625,-0.0661,-0.0655,-0.0655,-0.0655,-0.0655,0,-0.0209,-0.0214,-0.0228,-0.0255,-0.0262,-0.0284,-0.0325,-0.0355,-0.041,-0.0442,-0.0497,-0.053,-0.059,-0.0605,-0.0654,-0.0652,-0.0669,-0.0678,-0.0677,-0.0623,-0.06,-0.0613,-0.0658,-0.0658,-0.0657,-0.0657,-0.0657,0,-0.0189,-0.0212,-0.0219,-0.023,-0.0262,-0.0286,-0.0311,-0.0361,-0.0381,-0.0444,-0.0459,-0.0529,-0.0555,-0.0594,-0.0639,-0.0648,-0.0667,-0.067,-0.0648,-0.0645,-0.0658,-0.0654,-0.0693,-0.0693,-0.0693,-0.0693,-0.0693,0,-0.0181,-0.0191,-0.0212,-0.0219,-0.0234,-0.027,-0.0298,-0.0335,-0.0376,-0.0389,-0.046,-0.0474,-0.0553,-0.0579,-0.0624,-0.0639,-0.0653,-0.0655,-0.0643,-0.068,-0.0679,-0.0659,-0.0656,-0.0693,-0.0693,-0.0693,-0.0693,0,-0.0165,-0.0177,-0.0187,-0.0217,-0.0226,-0.0241,-0.0278,-0.0295,-0.0338,-0.0353,-0.0369,-0.0428,-0.0461,-0.0523,-0.0573,-0.06,-0.0626,-0.0625,-0.0657,-0.0646,-0.0608,-0.0607,-0.0601,-0.06,-0.0599,-0.0598,-0.0597,0,-0.0159,-0.016,-0.0177,-0.0179,-0.0197,-0.022,-0.0233,-0.0276,-0.0286,-0.0316,-0.0313,-0.0351,-0.0393,-0.0422,-0.0502,-0.0567,-0.0578,-0.0593,-0.0619,-0.0611,-0.06,-0.06,-0.0601,-0.0595,-0.0595,-0.0594,-0.0594,0,-0.0147,-0.0154,-0.0158,-0.0156,-0.0168,-0.0175,-0.0197,-0.0191,-0.0229,-0.0254,-0.0248,-0.0288,-0.0316,-0.0384,-0.0434,-0.0486,-0.0588,-0.0581,-0.0584,-0.0609,-0.0603,-0.0593,-0.0595,-0.059,-0.0591,-0.0591,-0.0591,0,-0.0142,-0.0137,-0.0137,-0.0136,-0.014,-0.0137,-0.0151,-0.0154,-0.0162,-0.0187,-0.0178,-0.0232,-0.0272,-0.034,-0.0387,-0.0435,-0.0453,-0.0473,-0.0483,-0.0488,-0.0465,-0.0442,-0.0369,0,0,0,0,0,-0.0137,-0.0124,-0.0118,-0.0114,-0.0115,-0.0118,-0.0127,-0.014,-0.0155,-0.0134,-0.0155,-0.018,-0.0247,-0.0287,-0.0323,-0.0382,-0.0476,-0.0428,-0.0507,-0.0568,-0.0573,-0.0563,0,0,0,0,0,0,-0.0131,-0.0121,-0.011,-0.0094,-0.0088,-0.0089,-0.0093,-0.0104,-0.0096,-0.0112,-0.0143,-0.0176,-0.0244,-0.0214,-0.0315,-0.0335,-0.0388,-0.0469,-0.047,-0.0565,-0.057,-0.0573,-0.0565,0,0,0,0,0]}]]